Regional Weather Roundup
Issued by NWS Midland/Odessa, TX

Skip options and go directly to product.
Home | Oldest Version | Previous Version | Current Version | All | Text Only | Save Text | Print | Product List | Glossary Off

Skip product version selection by date and time.   

060
ASUS44 KMAF 240910
RWRMAF
MIDLAND AREA WEATHER ROUNDUP
NATIONAL WEATHER SERVICE MIDLAND TX
300 AM CST MON NOV 24 2014

...IN SOUTHWEST TEXAS AND SOUTHEAST NEW MEXICO...

CITY           SKY/WX    TMP DP  RH WIND       PRES   REMARKS
ALPINE         CLEAR     30  27  86 SW6       30.13R WCI  24
ANDREWS        FAIR      35  28  73 W8        30.04R WCI  29
ARTESIA        NOT AVBL
BIG SPRING     CLEAR     39  30  69 SW3       30.05S
CARLSBAD       CLEAR     36  20  52 SW8       30.03R WCI  30
DRYDEN           N/A     53  26  35 SW7       30.02R
FORT STOCKTON  CLEAR     39  30  70 SW12      30.06R WCI  32
GUAD PASS      CLEAR     35  19  52 SW8       30.08R WCI  29
HOBBS          CLEAR     32  28  86 NW8       30.03S WCI  25
MARFA          CLEAR     30  25  80 NW9       30.08S WCI  22
MIDLAND AIRPK  CLEAR     39  30  69 W8        30.05R WCI  34
MIDLAND INTL   CLEAR     36  27  69 W6        30.04R WCI  31
ODESSA         CLEAR     36  26  67 W6        30.05R WCI  31
PECOS          CLEAR     33  27  79 W7        30.07R WCI  27
PRESIDIO       FAIR      50  27  40 SE5       30.06R
SEMINOLE       CLEAR     32  27  79 CALM      30.03S
SNYDER         CLEAR     34  29  82 W7        30.02R WCI  28
WINK           CLEAR     38  28  67 W7        30.04R WCI  33
$$
...OTHER STATIONS IN TEXAS...

CITY           SKY/WX    TMP DP  RH WIND       PRES   REMARKS
ABILENE        CLEAR     41  34  76 W9        29.98R WCI  35
AMARILLO       PTCLDY    30  26  85 W9        29.98R WCI  22
AUSTIN         CLEAR     50  37  61 N8        29.93R
BROWNSVILLE    FOG       68  67  96 CALM      29.77S VSB 1/4
CORPUS CHRISTI CLEAR     63  48  58 N22G29    29.82R
DALLAS FTW     CLEAR     47  34  60 W10       29.90R
DEL RIO        CLEAR     52  38  58 NW13      29.99R
EL PASO        MOCLDY    44   0  16 N7        30.11R
HOUSTON INT    CLEAR     57  42  57 NW14      29.84R
LUBBOCK        CLEAR     29  24  82 W6        29.98R WCI  23
SAN ANGELO     CLEAR     43  34  70 W9        30.01R WCI  38
SAN ANTONIO    CLEAR     54  36  50 N10G17    29.92R
WACO           CLEAR     46  37  71 NW7       29.91S
WICHITA FALLS  NOT AVBL
$$
...OTHER LOCATIONS IN NEW MEXICO...

CITY           SKY/WX    TMP DP  RH WIND       PRES   REMARKS
ALAMAGORDO     PTCLDY    37   5  25 MISG      30.11R
ALBUQUERQUE    CLEAR     32  12  43 N5        30.11R WCI  27
CANNON AFB     MOCLDY    30  26  84 NW6       29.98R WCI  24
CLOVIS         CLOUDY    34  27  75 NW12      29.98R WCI  25
HOLLOMAN AFB   PTCLDY    33   5  31 NE7       30.11R WCI  27
ROSWELL        CLEAR     39  14  36 NW10      30.03R WCI  32
RUIDOSO        CLEAR     28   5  37 NW14G23   30.05S WCI  17
SANTA FE       CLEAR     18   3  52 N5        30.04R WCI  11
TRUTH OR CONSE CLEAR     34  -1  22 NW7       30.10S WCI  28
TUCUMCARI        N/A     32  29  88 N6        29.99R WCI  26
$$

USA.gov is the U.S. government's official web portal to all federal, state and local government web resources and services.